Location: Hertford
(51.8000°N, 0.0667°W)
Time: 15:08:36
(UTC+00:00)

In-Cosmos 22 - Pass Details

Date: 18 September 2020
Orbit: 785 x 876 km, 81.2° (Epoch: 27 October)

Event Time Altitude Azimuth Distance (km) Brightness Sun altitude
Rises 19:06:58 0° 349° (NNW) 3,291 7.7 -10.0°
Reaches altitude 10° 19:09:23 10° 353° (N) 2,358 6.8 -10.3°
Maximum altitude 19:14:37 60° 73° (ENE) 901 4.1 -11.1°
Drops below altitude 10° 19:19:53 10° 154° (SSE) 2,362 6.1 -11.9°
Enters shadow 19:21:22 - 157° (SSE) 2,936 6.6 -12.1°
